Wind_Speed
22 25 25 25 25 25 27 28 28 29 27 22 17 14 7 4 1 4 5 2 5 5 5 5 5 5 8 11 13 12 9 8 10 10 9 8 9 9 9 10 12 12 10 9 8 9 7 4 3 5 7 5 3 1 8 8 3 2 7 5 2 2 2 4 4 3 7 12 11 10 10 10 11 9 7 7 7 8 7 5 3 2 3 3 1 3 3
22 25 26 25 25 25 26 27 27 26 24 21 16 10 5 4 3 3 4 2 3 4 4 5 5 6 7 9 10 10 9 9 10 10 9 8 7 9 9 9 11 12 11 9 11 10 7 5 4 5 6 4 3 2 6 7 3 2 0 3 3 2 2 2 3 2 4 7 6 7 8 7 5 6 7 8 9 7 5 3 3 3 4 6 4 2 4
22 24 26 26 25 26 26 27 26 24 22 20 12 6 5 6 4 2 3 3 3 3 4 6 6 6 8 9 9 9 7 7 10 11 11 9 9 8 8 9 12 12 10 11 13 11 8 7 3 3 2 3 4 2 4 6 5 2 4 2 1 1 2 2 2 4 5 4 2 2 4 6 6 7 9 10 11 8 3 2 2 3 5 6 2 4 5
22 24 26 26 25 26 26 26 26 22 20 21 13 7 6 5 2 1 1 2 3 3 4 7 6 6 7 7 6 8 8 4 7 12 10 7 8 8 7 10 12 11 10 11 12 12 11 11 5 3 4 2 3 5 5 4 7 3 7 4 1 0 1 1 2 0 2 0 1 0 4 7 8 7 8 10 9 9 4 3 2 1 1 2 1 8 9
21 23 26 27 26 26 26 26 26 21 17 19 14 7 6 4 2 4 4 2 3 3 4 7 6 5 5 5 5 8 9 3 5 11 9 3 6 7 7 9 9 9 9 9 10 11 12 13 10 5 5 5 3 7 11 12 11 5 3 1 1 1 2 4 2 0 4 3 2 4 6 10 10 6 7 13 10 3 2 4 5 4 1 1 1 10 13
21 22 25 26 26 27 27 27 27 22 16 15 12 5 3 3 2 4 1 2 4 4 5 7 6 7 6 4 6 8 10 8 4 5 7 7 6 5 5 8 10 12 11 9 9 9 11 12 6 4 3 3 2 7 10 11 5 5 6 5 3 3 4 5 4 5 4 4 2 2 4 10 13 8 5 8 9 10 8 4 7 8 1 5 6 11 14
20 21 24 26 26 26 27 27 27 23 17 14 9 4 3 3 2 2 1 1 3 3 5 6 5 6 6 4 5 7 8 9 8 6 6 6 7 5 4 7 9 9 9 6 5 3 4 6 5 9 8 3 1 3 3 5 3 7 9 6 4 3 4 6 7 8 8 8 7 5 4 8 12 10 7 7 8 11 11 10 10 8 7 11 12 13 13
20 21 23 25 26 26 27 28 27 24 19 14 6 4 6 5 3 3 4 2 3 2 4 5 4 6 6 5 7 8 7 7 9 8 7 5 6 7 6 8 10 11 9 8 7 7 7 6 6 7 7 4 2 2 1 0 4 8 6 4 5 4 3 4 6 7 7 8 8 9 9 8 10 11 9 7 6 9 8 9 10 11 10 12 14 14 10
20 20 21 24 25 25 26 27 27 24 20 15 8 7 8 7 4 4 6 3 3 3 2 4 3 5 6 5 6 8 8 9 10 7 6 9 10 10 10 10 10 10 8 9 10 10 9 8 7 7 7 5 3 3 2 2 3 1 2 3 1 2 1 3 4 4 5 6 6 7 8 9 9 10 10 8 5 6 6 4 5 8 10 12 12 9 7
20 19 20 22 23 24 24 25 26 24 21 15 8 7 10 9 6 7 7 2 3 4 3 4 4 4 3 2 4 5 7 10 10 6 4 9 12 12 12 11 7 6 8 10 11 11 10 9 7 6 6 6 5 4 4 5 2 3 3 2 3 3 3 1 2 3 4 4 4 4 5 6 6 5 6 7 4 4 7 5 7 8 8 6 5 6 9
19 18 18 20 22 22 23 23 24 24 22 17 10 7 10 10 7 7 7 3 3 3 4 5 5 5 4 1 3 4 4 8 9 7 5 8 12 13 13 11 7 5 8 10 11 11 10 9 6 5 7 7 7 5 5 6 4 1 4 3 1 5 5 1 1 3 4 1 3 3 6 4 2 4 6 4 3 6 7 7 8 8 7 6 8 10 12
18 17 17 19 20 21 21 21 21 21 22 20 13 8 10 11 8 5 5 4 4 4 4 5 5 6 8 6 2 4 5 3 3 4 6 8 11 12 11 10 8 7 9 11 12 11 10 8 7 7 8 7 7 6 5 4 3 2 2 5 5 5 5 1 2 1 2 3 5 2 5 1 3 5 8 9 10 12 11 9 9 10 12 13 14 13 13
18 17 16 17 19 20 20 20 20 19 19 20 16 10 11 12 8 4 4 4 4 5 5 4 7 7 8 8 7 1 8 8 5 2 2 6 9 10 10 8 8 9 12 13 13 12 9 6 6 6 6 6 6 6 6 3 1 3 3 1 5 5 2 0 2 1 1 1 1 2 2 2 3 4 7 8 9 10 9 7 7 8 10 12 14 15 15
19 18 16 16 18 19 18 18 18 18 18 19 17 11 10 13 9 5 5 4 3 6 7 5 7 9 8 8 10 7 4 7 7 5 5 5 4 6 7 8 10 10 10 10 10 8 5 3 4 5 4 4 5 4 4 3 2 4 5 3 1 2 3 1 2 2 1 3 1 1 1 2 2 4 7 6 4 4 4 3 5 5 6 9 11 14 16
19 18 16 16 16 17 18 17 17 17 17 19 17 10 9 14 12 7 6 6 2 5 6 7 6 10 9 7 9 9 4 2 2 2 6 6 3 2 2 7 10 10 8 8 7 5 4 3 4 3 2 2 2 1 4 5 4 5 6 5 3 1 2 2 2 3 3 3 2 1 1 1 2 6 10 9 7 8 8 2 6 5 6 9 11 13 15
19 17 16 15 15 16 16 16 16 17 16 18 18 11 10 14 16 12 8 5 3 4 6 8 8 8 7 7 8 8 6 5 6 3 2 1 3 3 2 5 7 8 8 7 5 4 4 3 4 3 1 1 1 2 3 4 4 8 9 6 4 3 2 3 3 3 3 4 3 2 2 2 3 6 10 11 11 10 7 1 4 4 8 12 12 12 12
18 17 16 14 14 15 15 14 15 15 15 17 18 13 10 14 17 15 9 3 4 5 7 10 9 6 5 6 6 7 5 5 6 5 3 3 5 6 6 6 5 6 6 6 5 4 3 2 4 3 1 1 1 2 1 2 3 7 11 7 4 3 2 2 4 4 4 5 3 1 3 3 5 7 6 8 11 10 6 3 3 4 8 11 12 12 12
18 17 16 14 13 14 14 13 14 13 14 16 16 12 9 13 18 17 10 2 4 4 7 10 10 6 6 7 6 6 6 6 7 6 5 5 7 7 8 7 6 5 5 5 4 3 3 2 2 3 1 1 1 0 2 1 0 3 6 5 4 4 3 3 4 3 4 4 1 2 3 2 6 8 6 6 7 6 2 2 3 5 8 9 9 10 11
18 17 16 14 13 13 13 13 12 12 12 15 16 12 9 12 17 17 11 4 4 5 7 10 10 8 8 8 7 6 7 7 7 6 5 5 8 11 8 3 5 6 6 5 3 2 4 2 1 3 2 2 2 2 1 1 1 3 5 5 3 4 4 4 5 4 3 3 1 3 3 1 6 8 7 7 4 0 2 3 4 6 9 10 9 9 10
17 17 15 14 12 11 12 12 10 10 10 13 16 13 9 11 14 15 12 7 2 4 6 9 11 11 10 9 8 8 7 7 7 7 6 6 9 11 5 2 5 6 6 6 5 3 4 4 3 4 3 1 2 2 1 0 3 6 7 6 4 5 4 3 4 4 4 2 2 3 3 3 7 7 5 5 4 4 4 5 7 7 9 11 12 11 10
16 16 15 14 11 10 11 11 10 9 8 11 14 12 8 9 11 13 14 11 4 4 5 7 10 11 10 10 9 10 9 8 8 7 6 7 8 7 4 5 6 5 4 5 5 3 4 5 4 3 2 1 2 2 2 2 4 7 6 5 3 6 5 3 5 4 4 3 4 3 3 5 7 5 3 5 6 4 5 7 7 6 7 9 9 10 9
16 16 16 14 11 10 10 9 10 9 7 9 13 11 7 7 8 11 13 9 5 4 2 2 5 9 10 10 10 10 11 10 10 9 8 7 5 5 6 6 6 5 4 5 5 4 5 5 4 4 3 4 4 4 3 2 1 5 6 3 4 6 5 3 4 6 5 5 5 4 4 5 6 5 5 6 8 7 9 11 8 6 7 7 7 9 10
16 16 15 14 11 9 8 8 8 9 7 7 10 12 10 7 8 13 14 6 1 2 1 1 2 6 8 9 9 9 9 9 10 11 10 8 5 4 6 6 6 5 4 4 5 6 6 5 4 4 4 4 5 5 2 1 2 4 4 3 4 6 4 2 2 6 7 7 7 6 7 8 9 8 7 8 8 8 11 12 9 8 8 8 8 10 11
16 16 15 14 11 8 7 6 6 7 7 6 7 9 9 7 9 13 12 4 0 0 1 2 3 4 5 7 8 9 8 8 10 10 11 10 7 4 5 6 6 5 6 7 6 5 4 3 4 3 3 4 5 4 2 3 5 5 3 2 6 5 4 3 4 3 2 4 6 7 7 8 8 8 9 10 9 9 10 10 8 8 9 9 9 9 9
15 16 15 13 11 8 6 4 4 5 5 5 6 8 8 7 9 12 10 4 3 4 1 4 4 3 3 5 7 8 8 8 8 8 9 10 8 5 5 6 4 3 5 7 6 5 4 3 4 2 4 4 5 4 3 3 3 4 4 3 5 4 6 3 5 4 3 5 7 7 7 7 6 6 7 7 8 9 9 8 8 8 8 8 7 7 6
14 15 14 13 11 8 5 3 2 3 3 3 6 9 9 7 8 10 10 7 6 5 3 3 5 2 2 4 6 6 7 7 7 8 9 9 8 6 7 6 3 3 4 4 4 5 4 3 4 4 5 4 5 4 3 2 2 2 4 4 2 2 5 4 5 6 5 6 7 7 7 7 7 7 7 6 6 8 8 7 7 7 7 7 7 6 5
13 14 14 14 11 8 5 3 1 1 2 2 4 7 7 6 7 8 9 8 5 3 2 2 4 3 4 5 5 5 7 8 8 7 7 8 8 7 7 7 4 2 3 3 3 3 4 2 4 4 4 4 5 3 1 3 4 1 3 5 3 2 5 5 3 4 4 5 6 5 3 4 6 6 7 8 7 7 7 7 8 7 6 6 7 6 6
13 14 14 14 11 8 4 2 1 0 0 1 3 5 5 4 6 7 8 8 5 4 5 4 2 3 2 3 4 5 7 8 9 8 6 7 8 7 6 7 6 4 4 4 3 2 3 5 4 3 3 4 4 2 1 0 2 1 4 7 6 5 6 6 4 3 5 6 4 1 2 5 6 5 7 8 7 6 7 6 6 6 5 4 4 3 5
14 14 14 13 10 6 3 1 0 1 2 1 4 7 5 2 6 8 7 7 7 6 6 4 0 3 2 3 5 6 6 7 7 7 6 6 7 7 6 5 5 5 4 4 4 3 4 4 4 3 4 3 4 3 2 1 1 3 6 7 7 5 5 5 4 3 5 7 4 2 5 7 6 5 6 5 3 4 5 5 4 2 3 3 2 1 2
14 15 14 12 8 4 1 1 1 0 2 3 6 8 5 4 6 10 8 7 7 6 5 4 1 2 3 4 4 5 5 5 4 5 5 4 4 6 7 5 4 4 4 3 2 3 3 3 3 3 4 4 4 4 4 3 2 6 7 7 6 5 4 5 4 4 6 6 4 5 8 7 5 4 5 4 4 4 3 5 6 5 3 3 1 1 2
15 15 13 8 3 2 2 2 3 2 3 6 7 6 2 2 5 9 8 6 6 6 5 5 2 1 3 3 1 4 5 4 2 2 4 5 3 4 6 5 5 5 5 3 2 2 3 3 2 1 3 3 3 3 4 5 1 6 7 6 6 5 4 4 3 5 6 5 3 4 6 5 3 3 4 5 4 3 1 3 8 7 5 2 2 2 4
14 12 8 4 1 3 4 4 3 3 5 5 4 3 3 5 8 9 6 5 5 5 5 4 3 1 1 3 3 1 5 5 4 4 2 4 5 3 2 3 4 4 3 3 2 1 2 2 3 1 2 1 2 3 4 4 2 6 6 5 5 4 4 3 2 3 4 3 2 3 4 3 4 5 5 4 2 1 2 1 3 5 3 3 3 2 2
11 8 5 3 2 4 4 3 2 2 2 2 3 5 6 9 10 7 3 3 5 6 4 3 3 1 1 2 3 1 3 5 3 2 1 4 5 4 2 2 2 1 0 2 2 2 1 2 2 0 2 1 1 3 4 3 4 5 4 4 5 3 3 3 2 2 3 2 1 1 1 3 5 5 3 2 1 1 2 4 4 2 3 2 2 1 1
8 5 3 3 3 4 3 2 2 1 3 3 2 3 5 9 8 4 1 2 5 5 3 3 4 2 2 2 3 2 2 4 3 1 3 4 4 4 3 1 1 2 1 2 3 2 1 1 2 1 3 2 1 3 4 2 3 3 2 3 5 3 2 1 0 0 2 3 2 3 3 3 2 1 1 1 1 0 2 5 5 3 1 1 2 2 2
5 3 3 3 5 5 4 2 2 5 6 3 3 5 6 8 5 1 0 3 4 3 2 2 4 3 2 2 2 2 3 4 3 3 3 3 3 3 4 3 1 1 1 2 4 2 1 2 3 2 2 2 1 2 3 3 1 2 1 1 3 3 3 2 2 1 2 2 1 1 1 0 1 2 2 1 2 3 4 3 3 3 3 2 2 2 3
3 3 4 4 5 4 3 3 4 5 4 2 5 5 5 4 2 0 1 3 4 3 2 2 2 2 3 1 3 2 3 3 3 3 2 2 2 2 3 4 3 2 2 2 4 2 3 3 4 4 1 1 2 1 2 3 3 3 2 2 0 1 2 3 2 2 3 3 1 1 1 2 3 3 2 1 2 3 2 2 3 3 4 3 3 3 2
4 5 5 4 4 4 5 4 3 2 3 4 5 5 3 1 1 2 3 5 5 4 3 4 2 2 2 1 3 2 3 1 1 2 2 2 3 2 2 3 3 2 2 3 2 1 3 2 3 4 3 3 3 3 3 3 4 3 3 4 2 1 2 2 2 2 3 3 3 3 3 4 4 3 2 2 4 3 1 1 3 4 4 4 3 3 3
5 6 5 4 3 3 2 3 5 4 3 3 3 3 3 3 3 3 3 2 2 3 3 3 2 2 2 1 2 3 4 2 2 2 3 2 2 2 2 2 2 2 3 3 2 3 3 1 2 4 4 3 2 1 3 2 3 3 4 5 4 3 3 2 3 4 4 4 4 3 4 5 4 3 2 2 3 3 2 1 3 4 5 4 3 3 3
6 5 7 7 4 0 2 4 4 2 1 1 2 2 2 2 2 2 2 1 1 2 1 1 2 3 3 2 3 3 4 3 3 3 3 1 1 2 2 2 1 2 4 3 2 2 4 3 2 3 3 1 2 3 4 2 2 3 3 4 5 5 5 4 3 4 5 3 2 2 4 5 4 4 3 3 3 3 2 1 4 7 6 4 2 3 4
7 6 6 3 1 4 5 5 4 1 2 3 2 2 1 1 1 0 1 2 2 1 1 1 1 2 3 2 1 2 3 3 3 3 2 1 1 2 3 2 2 2 4 3 2 1 4 4 2 3 2 3 5 4 3 2 4 4 3 3 5 6 7 7 5 4 4 3 2 4 5 4 3 4 4 4 4 4 1 2 6 9 6 2 2 3 6
3 4 3 3 5 4 3 4 3 3 2 1 0 0 1 1 0 0 1 3 2 2 2 1 1 1 1 3 2 2 2 2 2 3 3 1 2 2 4 3 2 2 4 2 2 1 4 3 2 3 3 2 5 4 3 4 4 4 4 4 4 5 7 9 8 6 5 4 4 5 4 3 4 5 5 4 4 3 2 4 7 8 5 4 4 4 6
5 4 4 4 3 1 2 3 3 2 1 2 1 1 1 1 1 1 1 0 1 1 1 0 2 2 2 3 3 2 3 3 3 2 2 1 2 2 4 3 2 3 3 3 2 3 3 3 3 4 3 4 5 3 3 4 5 5 5 5 4 4 6 9 8 5 4 4 5 5 2 2 4 5 5 5 4 2 2 5 7 6 5 5 4 5 6
5 4 3 3 2 2 2 2 1 1 1 1 1 0 1 2 2 1 1 1 0 0 1 1 1 0 1 2 2 1 2 2 2 2 2 1 1 1 3 2 2 3 3 3 3 4 3 3 4 3 3 5 3 3 4 5 5 5 6 6 4 2 5 8 6 3 3 5 5 4 2 3 4 4 4 4 4 1 3 5 6 6 7 7 6 6 6
2 2 3 2 1 1 1 0 1 1 1 2 2 1 2 2 2 1 2 2 1 1 1 1 2 1 1 1 1 0 1 1 1 1 2 1 1 2 2 2 2 3 3 3 3 4 3 3 4 4 1 2 2 3 3 3 4 5 7 8 5 2 3 6 5 3 4 5 5 3 3 4 4 3 3 4 3 2 4 6 6 6 7 7 5 6 6
5 3 1 1 0 1 1 1 1 2 2 2 3 2 1 1 2 2 2 1 0 1 1 1 3 2 1 1 1 1 0 1 1 1 1 2 2 3 3 3 3 3 4 4 4 4 4 3 3 3 2 2 3 3 2 2 3 3 5 8 8 5 4 5 4 4 4 5 4 4 4 4 4 3 3 4 3 3 4 6 6 7 7 6 7 8 7
4 1 1 1 1 2 2 2 2 2 2 2 1 1 2 2 2 3 2 1 1 1 1 1 2 3 2 1 1 1 1 1 1 1 1 2 3 2 2 3 3 3 3 4 4 4 4 4 3 3 2 2 3 3 3 3 4 4 4 6 6 5 5 4 5 5 6 5 5 6 6 6 6 5 4 4 4 3 5 6 7 7 7 7 8 9 7
2 1 3 2 1 2 3 3 3 1 1 0 1 2 3 2 2 3 2 2 2 2 3 2 2 2 2 1 2 2 1 1 2 2 1 2 3 2 1 3 3 3 3 4 4 4 4 3 4 3 2 1 2 3 3 4 4 4 5 5 6 6 5 4 5 8 8 8 8 9 9 9 8 7 6 6 5 4 5 6 7 7 8 8 8 8 7
1 2 3 2 1 3 4 3 2 1 1 1 1 2 2 1 1 2 2 1 2 2 2 2 2 2 1 0 2 3 2 1 2 3 1 1 2 2 1 2 3 3 4 4 4 4 3 3 4 4 4 3 3 3 4 4 4 6 7 6 4 5 5 4 5 10 11 8 8 10 9 7 6 6 7 8 7 5 5 7 8 8 8 8 8 8 7
1 2 3 2 2 4 3 1 1 1 2 1 1 1 1 1 1 3 2 1 1 2 2 2 3 3 2 1 1 3 3 1 1 2 1 1 2 2 2 3 4 4 3 3 3 4 3 3 4 4 4 3 2 3 4 4 4 5 7 6 5 6 7 6 7 11 14 13 11 8 7 6 6 6 6 8 9 8 5 6 6 7 8 9 9 9 8
1 3 3 3 4 3 1 1 2 2 2 2 1 1 1 1 1 3 2 1 2 2 2 2 1 1 2 2 2 3 3 2 2 3 3 3 3 3 3 4 5 4 4 3 3 4 5 5 5 4 4 4 4 5 5 5 4 5 6 7 6 5 4 4 6 9 13 16 15 12 9 10 9 6 5 3 7 11 10 6 5 7 8 9 9 9 9
3 3 4 4 4 3 1 1 3 1 1 2 1 1 1 0 1 3 2 2 3 2 3 2 1 1 2 3 3 2 2 2 2 4 4 4 3 3 4 5 5 4 4 4 3 3 4 4 4 3 4 5 5 5 5 6 7 7 8 9 8 5 5 6 8 8 10 13 14 13 12 12 10 5 5 4 3 10 12 9 6 6 7 8 8 10 10
4 3 3 4 4 2 2 2 2 2 1 1 1 2 2 1 1 2 2 2 4 3 3 2 2 3 3 2 1 2 2 2 3 4 4 4 3 4 4 5 5 5 5 5 5 4 4 5 5 4 4 5 7 7 7 7 8 8 9 10 9 7 6 7 7 7 9 10 9 10 14 16 13 6 5 4 4 7 10 9 6 6 6 7 8 10 10
Wind_Direction
351 350 349 351 352 353 356 357 1 2 357 350 343 329 298 260 317 100 114 159 219 242 281 269 260 267 263 271 282 289 298 294 286 282 277 275 272 267 262 262 264 259 263 283 280 273 284 271 191 177 214 226 111 171 278 275 233 289 319 323 316 283 207 207 239 277 286 284 288 287 273 251 233 232 246 248 238 233 234 250 264 237 260 284 213 133 102
350 352 352 352 354 356 357 358 1 4 5 356 337 318 302 302 315 122 111 54 267 269 304 298 289 286 275 276 283 291 304 303 293 285 277 275 280 278 265 259 267 258 244 255 262 258 274 276 215 188 213 202 129 19 353 354 337 187 311 343 338 303 275 240 231 223 259 269 263 273 290 288 260 239 238 246 250 249 246 252 268 249 232 248 257 120 111
351 354 354 353 355 358 358 358 359 0 3 359 338 298 298 306 288 183 115 56 342 312 328 316 306 305 299 290 287 287 280 272 281 283 281 292 304 296 282 287 294 288 270 260 257 254 263 272 245 134 152 188 196 199 38 357 322 64 66 5 350 320 307 321 288 224 215 240 227 247 308 310 294 268 249 244 244 254 312 349 275 260 240 247 247 111 124
352 355 354 355 357 360 360 357 356 356 358 355 338 287 285 301 298 331 42 62 9 344 342 329 325 330 311 294 296 291 273 273 314 304 283 275 292 292 288 294 298 300 296 281 268 259 252 259 261 166 140 123 233 207 155 226 262 57 46 5 106 190 283 58 7 256 139 181 250 327 341 319 298 288 305 305 267 238 256 291 281 250 191 303 120 137 139
354 356 356 356 359 1 2 358 355 351 350 350 337 282 267 294 349 10 351 345 2 359 359 347 342 355 333 313 328 308 291 328 349 311 301 287 285 284 278 281 281 282 287 279 273 274 262 253 254 234 178 137 207 219 185 199 226 183 117 308 119 226 221 138 130 182 111 98 336 1 353 323 312 319 341 335 329 315 280 273 282 273 198 360 76 132 128
354 358 357 358 1 3 3 0 356 350 341 338 326 280 271 311 29 58 2 326 4 357 357 358 353 12 19 344 346 348 345 3 2 306 323 338 325 307 285 281 273 267 271 267 261 271 269 262 276 352 15 113 172 234 191 174 198 202 205 222 204 241 236 165 178 240 220 204 252 338 338 317 319 339 355 333 353 21 15 353 324 310 238 143 138 126 121
355 359 359 0 3 5 6 3 0 354 342 328 310 299 356 351 33 69 246 291 37 7 350 359 359 15 18 346 353 11 10 2 348 349 10 351 340 353 323 299 298 295 308 317 297 298 303 302 359 20 2 25 66 272 190 140 191 226 224 219 193 221 241 209 215 236 233 228 233 242 265 298 309 326 358 7 38 47 27 29 42 41 94 131 133 117 109
356 359 1 3 4 6 8 7 5 1 356 348 346 28 19 358 17 7 303 326 40 15 351 358 3 20 14 360 4 3 8 5 342 348 22 10 350 2 351 340 337 333 354 25 19 13 10 356 4 2 346 360 7 292 286 71 245 230 223 208 188 199 212 215 236 246 233 223 222 228 233 248 283 302 323 349 31 58 40 36 63 79 95 110 113 106 99
355 358 2 4 6 8 10 9 8 10 11 7 13 36 9 346 353 331 299 329 5 322 360 15 2 26 25 16 10 357 359 360 335 328 12 12 5 1 355 2 354 330 350 27 16 358 350 340 338 335 333 337 308 281 269 280 280 283 358 352 264 222 209 198 228 248 249 237 219 215 218 221 247 272 281 293 330 61 74 56 73 102 113 111 108 112 123
354 358 2 4 7 9 10 12 11 15 21 15 5 21 9 350 345 318 296 327 8 325 12 28 2 21 40 42 34 15 359 354 342 333 357 1 1 354 350 5 4 336 360 8 349 336 328 319 314 304 298 294 288 290 276 267 281 91 87 11 345 300 271 246 236 234 235 240 224 208 207 209 223 259 285 277 251 128 108 94 99 122 140 135 121 128 134
355 358 1 3 6 8 10 14 13 14 19 9 342 353 10 356 339 319 301 318 18 5 28 32 14 6 356 24 88 69 27 4 356 350 339 344 348 343 346 358 357 353 6 348 324 316 306 295 288 273 270 271 267 264 261 264 271 165 141 124 359 284 269 296 2 266 243 341 358 244 218 206 236 322 342 335 173 132 102 83 93 114 125 112 112 127 135
355 358 1 2 5 8 9 13 15 12 12 3 339 342 9 353 324 312 315 333 13 25 33 45 38 9 358 2 47 133 119 73 1 338 329 330 334 333 340 351 347 348 346 328 316 312 294 270 252 241 237 245 250 249 251 262 289 295 183 144 160 230 252 196 101 273 276 28 27 246 218 220 352 347 14 49 83 96 89 73 73 95 107 108 115 128 134
354 357 0 1 4 7 8 11 13 10 7 2 349 347 8 356 331 328 348 349 19 14 355 37 45 12 5 7 338 282 141 151 187 200 304 311 326 337 343 341 331 331 331 322 316 312 297 270 251 240 224 223 231 230 230 226 18 336 311 181 165 186 216 145 97 50 319 266 180 187 248 342 23 23 26 50 79 90 91 79 65 85 109 120 129 138 137
354 356 359 360 2 6 7 9 11 6 4 1 349 344 12 9 354 354 343 333 47 30 353 21 33 351 347 7 347 341 118 166 200 186 194 231 285 331 336 334 327 321 320 317 312 306 303 292 265 249 227 223 226 228 240 247 292 312 306 318 343 156 161 150 101 84 290 257 193 106 360 348 73 55 18 20 43 19 14 89 108 110 123 125 125 131 132
354 355 357 358 1 4 6 8 9 4 4 4 356 359 28 15 355 343 328 317 34 54 13 14 7 328 330 7 2 351 8 344 295 199 200 213 191 169 309 331 326 317 313 309 304 304 316 314 285 267 272 269 249 319 335 326 323 313 293 275 279 254 169 180 164 169 218 239 229 165 133 69 37 18 0 358 3 343 335 66 122 126 119 107 102 111 121
353 354 356 357 359 3 4 7 8 4 3 4 2 9 29 15 356 342 332 335 23 49 24 9 349 321 333 12 11 357 357 349 344 341 239 310 56 86 38 339 311 297 302 307 306 304 301 299 295 284 274 304 93 82 359 336 336 325 309 279 258 269 229 218 224 213 218 235 263 278 117 91 19 5 351 339 340 338 322 248 134 125 121 113 109 112 114
353 354 355 357 359 1 3 6 6 4 3 360 356 356 10 13 1 342 324 358 63 49 24 10 356 341 358 15 5 357 358 342 337 335 318 351 32 33 4 346 306 278 292 304 298 289 284 283 292 287 176 75 29 120 90 6 5 325 318 324 327 316 301 257 251 240 239 246 267 359 92 77 10 359 349 326 327 330 306 222 157 120 123 122 123 126 126
354 353 355 358 359 359 2 5 5 3 3 359 354 353 3 8 0 344 329 14 76 51 29 22 19 17 14 9 0 359 2 346 336 333 325 348 18 4 340 342 351 338 320 311 292 283 293 282 284 305 63 109 304 223 117 65 36 290 314 341 349 339 349 324 291 271 267 264 218 91 101 65 347 338 335 314 307 314 308 153 126 113 117 120 127 131 130
353 352 355 357 359 1 1 3 5 1 359 358 357 360 13 12 1 354 356 29 72 53 34 28 32 33 21 15 11 8 11 1 350 350 352 4 357 330 306 318 8 355 341 336 344 347 320 311 24 332 325 116 38 16 85 159 289 338 340 343 355 1 2 352 347 346 320 288 150 108 97 30 312 313 323 327 321 73 91 69 77 101 112 111 106 98 95
352 351 353 354 357 2 1 2 5 357 351 355 352 349 6 20 9 2 3 3 45 77 49 34 40 41 35 33 25 13 18 18 4 359 359 357 344 327 312 69 14 352 2 359 359 14 345 351 30 350 319 91 56 338 288 181 74 42 359 334 10 16 346 1 33 3 328 360 69 94 91 27 331 321 330 354 29 111 117 71 58 70 88 90 83 80 86
350 349 349 348 351 359 0 4 6 353 342 350 347 339 351 23 17 2 356 356 17 76 53 36 46 49 45 44 34 23 25 25 14 7 353 337 338 343 14 42 8 356 17 354 336 3 7 355 5 340 314 32 39 343 344 16 82 64 20 340 20 23 346 7 48 11 329 33 64 66 77 48 17 17 51 38 36 74 101 78 67 75 87 86 81 84 90
348 349 347 343 345 353 357 3 7 0 345 343 346 344 357 31 19 345 338 355 42 83 61 31 61 63 57 50 43 39 37 29 18 14 357 334 339 13 30 23 9 11 20 352 340 1 12 4 357 346 356 20 7 350 354 341 84 63 44 17 27 36 22 14 45 44 38 65 89 92 84 71 54 60 78 57 43 53 68 65 59 65 78 78 75 72 71
347 348 345 340 338 347 354 358 6 11 5 353 356 356 356 13 4 333 324 330 90 132 173 194 92 65 53 45 45 45 40 34 29 22 9 350 351 39 46 20 358 356 10 13 1 352 359 10 358 344 10 23 350 325 320 16 34 31 42 70 63 50 27 352 75 87 75 70 85 94 87 77 66 56 58 59 57 59 66 67 62 57 63 66 64 57 46
346 345 344 339 334 339 352 355 2 16 23 24 18 358 337 341 353 340 330 325 173 236 119 89 47 31 22 24 36 35 27 31 36 28 20 13 9 31 42 16 351 350 4 6 350 326 329 344 322 326 34 24 341 331 1 37 38 11 334 75 79 50 357 17 85 114 109 88 98 101 92 87 83 73 67 69 70 67 67 73 75 70 68 68 65 64 55
346 344 342 339 332 330 342 351 2 21 31 40 32 2 336 341 357 345 331 326 323 302 268 87 62 17 337 7 27 27 19 20 23 23 30 35 31 21 13 360 337 325 336 339 333 323 325 330 315 342 57 30 342 359 36 29 34 21 352 35 65 11 321 358 75 69 67 100 112 115 110 107 107 101 89 84 86 84 78 79 84 83 85 86 82 81 81
344 342 341 339 331 325 333 337 356 28 30 40 29 6 351 359 6 350 336 333 326 294 265 96 84 70 20 27 24 19 19 17 15 19 29 36 37 26 6 351 318 277 298 315 330 329 324 338 356 8 38 25 343 345 22 360 332 28 38 43 66 311 318 355 69 84 93 111 120 121 122 118 106 102 107 108 105 104 105 110 112 108 106 111 112 114 118
340 339 340 338 329 321 328 325 316 33 24 50 36 6 352 0 13 8 357 350 336 297 295 49 85 85 53 40 22 13 23 19 11 15 25 28 29 23 11 1 353 344 341 331 308 300 312 354 28 19 21 15 340 321 16 4 327 339 60 48 44 29 10 14 57 110 113 123 129 126 123 120 111 107 114 117 119 126 131 130 124 118 115 123 132 138 143
338 335 334 333 326 317 318 313 278 286 286 85 26 340 328 360 25 23 12 357 341 318 322 351 78 117 82 35 16 16 33 30 13 6 14 20 17 13 15 13 5 7 8 345 318 333 17 23 22 15 19 13 347 320 161 264 287 305 63 55 50 44 30 24 30 61 77 98 121 107 82 117 128 128 126 128 134 140 137 123 112 115 126 134 133 141 159
336 333 329 326 317 303 299 319 323 273 256 270 318 301 271 109 44 19 8 358 344 322 307 307 153 143 114 53 23 13 32 39 21 7 10 11 11 16 21 17 10 7 356 340 339 4 41 47 27 12 23 9 331 316 312 289 132 84 69 69 70 61 47 43 35 51 91 105 104 69 96 119 130 121 114 112 87 81 103 111 112 139 165 147 127 205 206
333 331 327 320 304 275 235 58 82 201 265 277 294 287 238 141 48 11 359 355 346 329 307 302 318 99 90 64 19 349 6 27 20 8 4 350 358 22 15 359 8 7 332 315 6 5 14 53 49 38 44 19 332 316 321 326 82 93 77 72 76 72 66 68 61 73 94 97 86 92 110 128 143 135 121 99 50 41 82 104 83 50 43 84 107 322 356
334 333 331 326 301 196 130 102 108 77 347 304 295 292 237 137 18 358 349 348 341 318 294 293 297 148 128 108 28 325 341 2 349 313 334 336 347 30 21 3 15 17 351 344 28 19 5 19 16 45 67 30 335 321 321 318 45 94 78 62 61 58 52 58 82 104 109 110 106 112 122 133 143 137 121 95 58 5 303 112 94 73 45 2 285 332 25
341 343 348 2 90 142 121 106 101 57 8 338 337 22 31 1 350 343 337 341 329 298 283 294 305 291 128 121 124 294 316 323 291 256 289 2 1 5 36 30 33 38 11 339 339 27 35 4 326 352 67 45 307 311 315 321 52 90 84 71 67 62 56 46 42 84 106 120 142 155 152 121 80 83 107 114 91 2 330 15 108 129 162 219 219 175 82
349 354 7 43 109 131 124 118 121 92 46 18 52 54 16 352 350 345 336 333 306 284 280 297 296 303 72 109 131 153 302 313 308 275 57 34 354 323 350 53 67 119 141 326 337 4 359 295 289 73 109 134 299 312 309 335 44 61 71 86 86 73 63 61 42 50 79 84 33 4 87 86 76 82 117 153 140 69 360 309 288 212 179 221 261 242 229
352 1 32 81 119 133 133 130 141 193 232 224 131 69 358 344 347 343 333 336 300 271 262 285 286 270 152 172 153 109 331 311 318 10 48 36 353 328 338 352 195 169 127 346 330 292 243 292 337 85 144 147 8 326 304 320 43 41 41 103 114 112 90 80 240 172 92 78 50 44 61 76 84 104 140 134 110 191 257 272 278 272 232 246 278 283 268
3 47 89 122 138 139 137 159 249 264 261 241 89 52 358 340 338 311 306 334 300 265 227 242 258 266 263 213 128 83 326 315 342 8 16 18 351 334 337 323 290 117 78 328 298 281 117 51 354 337 139 148 211 273 286 299 38 68 22 128 140 149 163 190 222 202 123 108 92 78 97 164 230 227 207 193 222 238 248 266 287 291 282 272 264 259 263
70 123 147 151 147 157 189 216 246 274 291 3 31 14 354 346 357 140 268 282 272 272 306 280 241 277 312 2 84 58 312 320 2 347 334 348 338 334 336 324 324 20 35 299 284 310 65 50 324 303 266 238 273 321 17 349 8 39 355 318 62 184 220 221 216 197 162 146 120 332 296 271 270 270 267 271 267 259 276 327 319 292 276 269 260 258 277
142 168 176 157 157 214 229 189 122 30 348 359 355 338 317 285 251 215 230 242 230 219 268 296 322 8 354 55 83 24 331 344 338 303 331 15 354 334 325 318 337 15 325 271 261 34 62 58 307 292 273 273 309 13 48 1 346 354 327 317 325 279 262 245 202 195 181 174 198 249 262 263 270 278 279 279 285 284 257 249 276 279 277 274 275 286 295
183 190 202 208 214 240 236 109 79 37 350 348 340 303 246 225 225 202 189 206 202 192 232 280 329 1 340 41 68 10 344 338 319 333 19 23 334 323 329 328 2 358 304 302 37 18 327 280 273 284 272 265 292 39 88 41 354 343 312 302 301 291 280 248 195 194 203 202 203 227 257 269 277 285 280 280 296 306 299 246 255 262 258 259 268 272 266
200 218 234 236 234 54 63 74 69 42 342 293 278 265 227 206 217 196 155 162 201 191 213 309 1 10 358 15 68 44 4 329 314 346 21 20 313 356 355 341 12 330 299 315 54 4 294 277 257 274 286 354 49 70 87 71 323 308 302 302 308 308 296 274 239 220 224 225 197 200 239 266 295 316 317 306 288 281 271 233 249 252 248 251 265 251 257
215 239 242 229 91 69 78 89 95 124 235 236 230 246 273 249 232 172 145 200 210 157 76 9 14 43 17 337 5 50 5 321 311 342 348 331 23 3 324 317 3 340 305 316 66 19 294 300 296 284 304 76 88 79 47 339 305 312 326 313 303 298 286 275 264 237 218 214 215 223 235 262 305 313 316 319 308 303 293 217 244 251 237 177 143 243 270
274 287 301 11 28 42 86 116 150 202 246 275 198 229 285 290 302 244 212 208 193 121 84 326 295 95 54 317 316 45 31 337 326 326 314 337 42 334 299 311 350 316 294 328 37 328 293 302 306 295 308 56 91 84 32 337 316 317 318 301 293 294 287 278 265 237 208 206 229 239 250 294 311 307 315 317 301 297 252 232 252 262 245 195 187 235 273
9 353 343 341 338 320 167 183 199 208 316 341 307 263 270 230 198 237 230 182 50 95 124 328 338 55 51 330 330 31 39 357 331 300 295 17 48 302 291 314 330 289 295 340 357 311 296 296 285 287 329 41 51 30 351 337 331 327 321 315 318 317 298 282 263 228 201 222 243 248 265 309 302 306 318 311 296 291 229 235 252 267 265 252 236 243 269
39 12 333 294 254 218 216 236 214 108 5 277 215 308 281 229 210 209 162 126 90 90 120 117 307 63 73 350 326 49 60 3 327 295 294 353 30 278 292 309 292 281 306 324 300 286 291 290 288 302 59 79 54 338 342 359 350 328 314 313 322 331 301 290 281 236 200 225 240 244 258 280 289 302 308 298 295 282 229 237 241 241 247 250 242 239 260
353 313 292 275 234 237 291 292 171 191 252 232 201 193 208 205 187 135 117 125 134 117 69 352 308 296 85 13 291 221 119 74 346 321 319 334 329 296 288 287 281 291 305 298 284 289 291 277 284 306 9 84 54 7 10 4 343 330 326 324 328 335 286 284 282 260 231 232 232 232 244 264 281 295 296 295 294 249 236 244 238 235 247 260 263 260 262
251 212 203 216 282 295 284 175 198 219 212 215 230 229 145 112 105 107 107 90 94 160 171 316 324 325 341 24 333 329 16 136 192 228 305 312 302 289 282 289 301 305 296 285 286 293 292 292 317 337 345 355 9 18 1 320 334 355 336 321 322 324 302 278 266 253 247 247 247 242 242 253 261 260 272 284 274 232 236 248 245 242 246 246 250 256 249
242 207 229 238 255 263 228 198 213 218 195 200 261 17 62 70 71 81 82 313 311 86 82 22 336 315 308 301 215 249 288 295 278 254 229 265 272 283 311 310 300 289 286 291 295 294 295 312 356 36 55 19 355 348 323 318 340 353 324 310 313 313 298 281 268 254 240 238 252 254 243 239 246 249 260 282 283 257 241 238 239 246 247 237 240 255 256
239 260 264 256 245 234 221 214 223 230 163 145 24 54 65 67 72 73 53 327 349 30 20 349 311 286 285 296 276 252 214 239 274 268 254 269 275 282 311 301 287 277 279 282 285 292 307 332 357 7 6 343 331 323 314 317 328 321 298 287 286 286 287 294 291 273 250 226 227 242 243 240 243 244 239 236 241 250 252 241 234 236 240 240 243 249 250
260 259 257 256 229 220 219 220 226 185 103 75 72 80 69 48 102 98 72 10 12 15 347 330 319 298 262 182 291 282 249 205 247 258 259 289 293 291 287 280 276 273 270 271 283 304 333 26 36 11 351 353 354 327 311 310 309 300 291 288 298 308 316 328 316 300 287 259 233 237 246 250 256 268 275 269 255 235 226 232 234 231 230 238 247 245 239
321 274 261 259 254 244 239 265 276 181 115 69 49 125 157 207 139 104 91 34 360 355 345 348 336 311 286 195 252 270 260 235 249 258 244 241 252 254 262 269 271 274 279 287 301 312 333 24 34 3 342 344 334 295 282 282 287 293 302 315 331 335 336 343 335 319 309 296 278 266 263 257 246 244 263 285 290 282 252 228 229 231 225 227 239 245 240
263 262 250 244 255 265 267 258 248 202 153 168 220 217 199 219 97 78 52 339 335 338 309 282 268 296 303 298 278 272 271 266 259 255 251 252 253 253 253 258 266 280 294 302 316 330 338 344 339 328 319 312 294 277 274 276 272 269 277 281 280 284 302 315 311 304 299 294 288 280 266 254 248 229 195 216 282 289 279 251 227 233 230 222 228 242 243
238 240 243 245 256 284 324 275 262 250 170 184 193 76 50 349 98 84 50 327 304 292 283 277 250 239 261 265 261 268 290 295 268 256 256 259 260 258 258 260 268 286 298 300 316 336 332 319 314 315 309 293 278 268 271 284 289 288 284 280 272 254 237 242 251 262 275 285 295 301 292 276 263 237 175 164 255 284 280 264 240 232 232 228 228 238 243
223 223 249 257 253 258 264 258 271 293 278 213 135 88 63 320 5 77 58 303 284 280 287 292 265 245 252 263 269 275 282 279 267 264 267 268 264 264 274 286 299 306 304 306 320 337 330 312 303 296 289 289 292 293 289 284 281 282 285 291 296 296 285 277 278 280 278 279 287 297 293 284 272 240 177 165 221 260 269 272 263 239 227 229 235 236 236
Height
799 795 793 790 786 784 781 778 776 772 768 765 764 763 758 753 751 749 750 751 749 753 755 749 746 746 741 735 729 723 719 718 716 712 711 713 712 709 710 711 712 711 707 704 703 704 703 702 708 717 719 715 711 708 706 702 699 707 717 712 703 701 707 721 727 717 707 699 689 685 683 683 689 691 689 692 696 699 707 714 713 718 725 724 737 761 765
798 795 792 789 786 784 781 778 776 774 771 769 767 764 756 749 746 745 749 749 747 753 757 752 749 744 738 736 733 728 726 725 723 720 718 716 715 716 713 712 711 705 701 703 704 704 707 706 705 710 712 709 706 705 704 704 703 709 718 716 711 713 717 726 738 740 732 721 712 705 698 694 695 694 692 693 694 695 700 705 710 721 726 723 737 762 765
798 795 792 789 786 783 780 777 775 773 772 771 769 765 758 751 746 743 744 746 748 751 752 750 750 746 742 741 738 734 731 728 726 724 722 719 719 720 717 713 713 707 702 704 701 698 706 707 702 708 712 708 705 705 706 708 706 706 709 708 710 720 722 724 736 747 748 744 739 734 725 715 706 699 694 694 694 698 708 716 723 731 727 722 738 760 761
797 795 792 789 786 783 779 777 774 772 771 770 768 766 759 751 747 745 744 745 747 749 748 747 749 750 751 748 742 741 737 731 730 728 725 722 721 723 722 718 718 716 713 714 709 701 702 703 702 709 715 712 709 706 706 711 710 707 707 705 708 718 722 724 730 734 737 742 737 728 727 726 717 708 705 704 699 698 708 720 730 734 737 741 747 752 755
797 795 792 789 786 783 779 776 773 770 770 768 767 764 756 750 749 752 753 751 751 752 751 750 751 752 756 753 748 746 741 736 739 737 729 724 723 725 724 722 724 724 721 723 721 712 706 702 702 706 711 713 713 706 704 711 712 708 709 708 710 721 726 727 730 728 727 734 731 724 727 729 721 713 716 716 709 706 713 723 726 723 736 756 753 743 752
797 795 792 789 786 783 779 776 772 769 767 766 766 761 752 750 751 753 757 759 759 759 757 755 754 754 757 758 755 755 752 747 746 742 735 731 729 730 731 727 724 723 720 721 723 720 716 711 707 709 712 714 715 708 702 708 711 708 709 707 709 723 728 725 729 730 725 727 729 727 731 732 725 718 718 718 718 722 725 727 725 720 730 751 752 745 752
798 796 793 790 787 783 780 776 772 769 765 763 763 759 752 751 752 752 753 756 758 760 758 756 756 756 758 758 756 756 757 754 749 742 742 744 737 736 743 737 727 723 722 722 727 729 728 726 722 721 721 718 718 717 713 712 710 707 709 708 708 720 727 722 723 728 725 725 728 727 730 735 732 724 721 720 724 732 735 734 732 730 733 742 747 751 755
798 796 793 791 788 784 781 778 773 770 766 761 760 760 759 758 758 758 755 751 753 756 755 755 757 756 757 759 758 756 755 756 752 744 745 749 741 737 745 742 734 733 731 729 735 735 732 733 730 726 725 721 720 722 720 716 713 709 709 710 710 719 725 720 720 727 726 722 725 727 730 736 738 734 729 727 730 737 744 744 740 741 746 749 752 761 765
798 796 794 792 789 786 783 780 776 772 769 765 762 763 764 763 760 761 759 755 753 754 753 754 757 759 760 762 762 760 759 759 756 748 744 748 745 740 742 742 740 741 736 734 738 735 730 731 728 724 725 723 719 717 713 713 718 720 722 724 723 724 726 722 725 735 734 723 723 728 729 733 741 741 737 735 737 744 749 748 744 747 756 761 763 769 773
799 796 795 792 790 788 785 782 779 775 772 771 768 767 767 765 762 761 758 755 753 751 750 753 757 760 762 763 763 765 765 762 758 755 749 747 747 745 742 742 743 744 742 740 739 734 730 728 724 722 721 717 713 712 709 708 713 723 735 742 738 733 732 729 732 740 738 727 724 727 732 740 748 746 740 738 739 744 750 750 745 745 752 760 764 768 770
799 796 795 793 791 789 786 784 782 779 777 777 775 773 771 770 768 763 757 755 753 750 752 757 761 761 759 758 760 765 767 765 763 763 760 754 751 749 745 743 745 745 744 741 735 730 727 723 721 720 719 716 713 710 709 707 707 713 728 743 747 742 736 736 742 746 742 735 733 735 741 752 757 750 740 736 735 742 751 752 748 746 749 753 757 761 765
799 797 795 794 792 790 787 785 784 781 780 780 778 776 774 773 772 765 759 758 755 752 756 760 761 761 758 756 758 761 765 766 765 764 765 761 756 752 748 747 749 746 741 736 732 728 724 722 720 718 716 715 713 710 710 712 710 708 713 728 745 747 737 737 746 749 747 746 750 757 760 760 759 752 743 737 739 745 753 755 751 749 751 753 757 761 764
799 797 796 794 792 791 789 787 785 783 782 780 778 777 776 775 772 766 761 761 761 760 760 760 759 760 759 757 757 755 757 762 763 762 765 764 759 754 750 749 749 744 738 735 732 729 727 725 723 720 717 715 714 714 713 714 715 715 712 715 728 737 737 737 742 748 752 751 754 765 770 763 758 756 750 747 748 750 756 762 760 754 755 757 759 762 763
800 798 796 795 793 792 790 788 786 784 783 781 779 778 777 776 774 770 767 766 765 765 765 764 765 764 761 759 758 754 753 758 759 759 762 762 758 755 752 749 746 741 738 736 733 730 730 730 729 727 722 720 724 725 720 717 719 720 719 717 719 726 735 740 745 755 760 756 756 766 771 767 764 763 760 757 758 757 758 765 766 759 755 758 760 762 765
801 798 797 796 794 792 791 789 788 786 783 782 780 779 779 779 777 775 772 767 765 768 770 770 772 769 763 760 760 758 756 756 755 754 754 753 752 752 751 748 745 741 738 737 735 732 732 735 738 737 735 736 741 742 738 734 731 725 722 722 720 722 730 737 745 755 757 755 760 767 771 775 776 774 768 761 760 759 755 760 768 763 756 760 765 769 773
801 799 797 796 795 793 792 790 789 787 785 783 781 779 780 780 778 777 773 768 768 773 775 773 772 769 764 762 763 763 762 759 755 753 751 748 746 748 748 746 744 743 740 738 736 733 734 739 740 741 745 749 750 753 752 749 745 738 728 723 723 723 726 730 738 747 749 751 758 763 770 781 783 779 775 768 763 760 757 765 774 769 761 765 771 776 780
802 800 798 797 795 794 793 791 790 788 787 785 783 782 781 781 780 779 774 770 772 777 776 773 771 769 768 768 768 766 765 763 758 755 753 749 746 747 747 744 742 740 739 740 739 735 736 740 738 738 745 746 743 749 753 753 757 757 745 737 737 735 731 732 738 744 744 746 756 767 777 784 781 776 776 774 768 764 766 775 779 770 763 767 773 778 784
802 801 799 797 796 795 793 792 791 789 788 787 784 783 783 782 781 779 774 771 774 778 777 774 775 774 773 774 773 769 767 767 762 757 754 750 750 752 751 748 745 742 738 739 740 739 737 738 737 739 742 740 737 743 751 755 761 761 751 746 747 745 740 738 740 743 742 745 759 776 782 783 780 775 772 770 769 771 776 779 776 768 766 770 772 776 782
803 801 800 798 797 796 794 793 792 791 789 788 786 784 784 784 782 780 776 773 775 779 779 777 777 778 777 776 775 772 770 771 768 764 761 760 757 754 749 748 749 747 743 741 740 741 740 736 734 736 740 740 740 744 748 750 751 750 747 747 748 751 750 745 746 750 748 746 759 777 786 785 781 776 770 765 770 780 782 776 770 768 770 773 776 781 786
804 802 800 799 797 797 795 794 793 792 791 790 788 787 786 785 784 783 781 778 777 779 781 780 779 780 780 779 780 777 775 775 774 771 770 768 761 754 752 756 756 753 752 753 749 746 745 741 738 739 741 742 744 746 745 744 744 747 751 750 750 755 757 754 758 761 755 752 765 783 791 786 778 774 772 770 773 780 779 774 773 774 775 778 784 789 791
804 802 801 799 798 797 796 795 794 793 792 791 790 788 787 787 786 785 784 781 779 781 784 783 782 782 782 782 782 781 780 780 780 778 776 772 764 760 763 767 764 759 761 764 758 749 745 745 743 741 738 737 741 745 746 746 747 749 751 751 754 759 760 761 766 766 762 768 782 788 787 783 777 776 778 778 776 774 773 776 780 780 779 783 788 791 793
805 803 801 800 799 798 797 796 796 794 793 792 791 789 788 788 788 787 785 783 783 784 785 784 783 783 784 783 783 783 782 782 782 780 780 775 768 765 768 769 767 765 765 767 764 757 752 751 750 745 742 744 749 750 748 749 751 751 752 755 761 764 764 764 768 770 769 776 783 783 781 780 779 778 779 779 779 777 778 783 787 785 785 788 792 795 798
805 803 802 800 799 799 798 797 797 796 795 794 793 791 790 790 790 788 786 784 784 784 784 783 782 782 783 783 784 784 784 784 783 782 781 779 772 769 772 774 772 770 767 769 771 767 761 759 757 752 752 755 757 754 749 748 752 755 755 757 761 764 762 762 767 772 775 778 780 780 781 783 783 783 782 782 783 784 786 790 794 794 795 797 799 803 803
805 804 802 801 799 799 798 798 797 797 796 795 795 794 793 792 791 790 787 784 783 783 782 782 783 784 785 784 784 784 784 783 784 783 782 781 778 776 777 778 777 774 772 772 771 768 764 762 758 755 758 761 760 757 755 756 759 760 757 757 761 764 763 763 769 774 780 784 785 784 785 788 789 789 789 789 789 791 793 796 798 800 801 802 804 806 807
805 804 803 801 800 799 799 798 798 797 797 796 796 795 794 793 793 792 790 786 785 783 782 783 786 786 786 785 784 785 785 784 784 784 782 782 782 782 781 780 779 779 776 773 771 768 766 764 759 757 762 767 764 760 761 764 764 761 761 764 767 767 765 766 770 775 780 784 785 785 787 790 789 790 793 794 795 797 798 799 801 803 804 805 807 808 809
805 804 803 801 800 799 799 798 798 798 798 797 796 795 795 795 794 794 792 789 787 783 779 781 785 786 785 785 786 785 785 785 784 783 783 783 783 783 782 780 778 778 776 773 772 770 767 764 763 764 767 771 770 765 764 765 763 760 764 769 769 768 768 768 772 781 786 786 786 787 790 791 791 792 795 796 797 799 801 802 804 805 806 807 809 810 811
805 804 803 801 800 799 799 799 799 798 798 798 797 796 796 796 796 795 794 793 791 787 781 779 783 785 784 785 786 785 785 785 785 784 784 783 783 783 782 780 778 777 775 774 772 771 768 766 769 771 772 773 773 768 766 768 765 763 766 770 769 772 776 774 775 783 789 789 789 790 792 795 797 796 796 798 799 800 802 803 804 806 807 809 809 810 811
805 803 802 801 800 799 799 799 799 799 799 798 798 797 797 797 796 796 796 795 794 793 788 783 782 785 787 786 786 785 786 786 786 785 784 784 784 783 782 781 779 778 777 776 773 771 772 774 776 775 775 777 777 772 767 768 768 768 771 774 775 778 781 780 781 785 789 790 791 790 791 796 798 796 796 798 798 799 801 803 804 806 807 808 809 810 811
805 803 802 800 799 799 799 799 799 799 799 798 798 797 797 798 797 796 796 796 796 794 791 785 782 784 787 787 786 786 786 786 787 787 785 785 784 783 782 782 781 780 779 778 776 774 775 779 781 779 779 782 782 776 768 767 771 775 777 778 779 780 781 782 784 787 789 791 791 790 792 797 799 797 797 798 798 799 802 803 805 806 806 807 809 809 809
804 802 801 800 799 798 799 799 799 799 799 799 799 796 794 795 798 797 796 796 796 795 792 788 784 784 786 787 787 787 787 787 787 787 786 785 784 783 783 782 781 781 780 777 777 777 777 779 781 781 782 783 783 779 774 770 773 778 779 778 780 781 782 783 785 786 789 791 791 791 794 798 798 798 799 800 801 802 803 804 806 807 807 807 809 809 809
803 801 800 799 798 799 799 799 799 800 799 799 798 796 793 794 797 798 796 796 797 796 793 789 784 783 785 788 789 789 787 786 787 787 786 785 783 783 784 783 782 783 782 779 778 779 780 782 782 782 783 784 784 783 778 773 775 780 781 779 781 783 784 785 785 787 790 792 791 792 794 796 797 798 800 802 804 805 804 805 807 809 809 810 809 810 811
802 801 799 799 799 799 799 800 800 800 800 800 799 798 798 799 799 798 797 797 797 796 793 789 785 782 784 786 788 789 788 787 786 786 785 785 783 783 783 783 784 785 785 784 782 781 782 784 784 782 783 785 785 784 780 776 778 783 784 781 783 786 787 788 788 788 790 792 792 794 795 796 798 800 802 804 806 806 806 806 807 808 810 810 809 810 811
802 801 800 800 800 800 800 801 800 800 800 800 800 800 800 800 799 798 797 798 797 794 792 791 788 785 785 787 788 788 788 786 784 783 785 786 785 783 783 783 783 785 786 785 784 783 783 783 782 783 785 785 784 785 784 780 779 781 782 783 786 789 790 791 792 791 792 793 794 795 797 798 800 802 803 804 805 806 808 808 807 807 808 808 808 809 811
802 801 801 801 801 801 801 801 801 801 801 800 800 801 800 800 799 799 798 798 797 794 792 791 789 786 785 786 787 788 788 787 784 783 786 787 786 784 784 783 782 784 786 786 784 783 783 782 781 782 785 785 785 788 787 782 780 781 783 784 788 791 793 794 795 794 794 796 796 797 799 800 802 803 803 804 806 807 808 808 806 806 807 808 809 810 811
802 801 802 801 801 802 802 801 802 801 800 799 800 800 800 800 799 799 799 799 797 794 790 789 788 786 782 783 786 789 789 787 785 784 786 788 787 785 784 783 782 783 786 786 783 780 781 784 785 783 784 785 787 788 787 782 780 782 784 785 787 791 794 795 795 795 796 798 799 799 800 801 801 802 802 803 805 806 806 806 806 806 807 808 809 810 811
802 802 802 802 802 802 802 801 801 801 800 800 801 800 800 800 799 798 799 799 799 797 792 786 785 784 783 784 789 790 789 788 789 788 786 787 788 787 786 785 785 785 785 785 783 781 782 786 787 786 785 786 784 782 782 782 783 785 787 787 788 790 792 794 794 795 797 799 801 801 802 802 801 801 801 802 803 804 805 806 807 808 808 808 809 810 811
803 803 802 802 803 803 801 799 800 801 801 801 801 800 800 800 799 799 799 797 797 797 795 790 786 784 783 785 789 791 790 790 791 788 787 789 790 789 787 787 788 787 785 784 784 783 784 787 789 789 787 785 782 780 782 785 787 788 789 789 789 790 791 792 794 796 798 800 802 803 803 802 801 800 801 802 802 803 805 807 808 809 809 809 809 810 811
803 803 803 803 803 800 798 798 800 802 802 802 801 801 799 798 797 796 795 795 795 794 793 791 789 786 783 785 790 793 793 791 790 789 790 793 793 790 788 789 790 790 788 785 784 785 784 785 788 788 784 780 780 782 785 788 790 791 791 791 791 791 792 792 794 796 799 801 802 804 804 803 802 801 801 802 803 803 804 806 808 809 809 809 810 811 812
803 803 803 801 800 799 799 801 802 802 802 802 802 800 797 795 795 794 792 793 794 792 790 791 792 790 788 790 793 795 794 793 793 793 795 796 795 794 793 791 790 791 792 789 788 789 787 785 785 785 782 781 783 785 786 789 791 791 792 792 793 793 793 793 793 795 797 799 801 803 804 803 802 802 801 802 802 803 804 806 808 808 808 808 809 810 811
803 802 798 797 798 800 801 802 803 802 802 801 800 798 796 794 793 793 793 794 792 791 792 794 793 792 793 794 795 796 796 795 795 795 796 795 795 796 796 793 791 793 796 792 789 789 788 786 785 784 783 785 788 789 789 790 791 792 792 794 795 795 795 794 794 795 796 798 800 802 802 802 802 802 802 802 802 803 804 806 807 807 806 808 810 811 811
803 801 798 798 801 802 802 802 802 802 800 799 799 800 799 797 794 791 792 793 793 791 792 794 793 794 795 795 793 795 797 796 794 794 795 796 797 799 798 794 792 796 798 793 788 787 788 789 790 788 784 784 787 790 791 792 793 792 793 794 795 796 796 795 794 794 796 798 800 801 801 802 802 802 802 803 803 804 805 806 807 805 805 806 808 809 810
804 803 802 803 803 802 802 801 801 800 801 801 802 801 799 797 796 793 791 793 793 792 793 795 795 795 797 796 794 795 798 798 796 795 796 798 800 801 798 795 797 802 800 792 787 789 791 793 794 790 785 785 789 791 792 794 794 794 795 795 795 797 798 796 794 795 797 799 800 800 801 803 803 803 803 803 803 804 805 806 806 806 806 806 807 808 809
805 804 804 804 802 801 801 800 799 800 803 804 806 807 803 797 793 792 791 792 793 793 794 795 795 795 797 798 797 797 799 800 798 796 797 799 800 800 800 801 803 802 797 791 790 793 796 796 794 789 786 789 793 793 793 795 797 796 796 796 795 797 799 797 795 796 798 800 801 801 802 803 803 803 804 804 803 804 805 806 806 807 807 806 807 807 808
806 805 804 803 801 801 803 803 801 803 806 805 803 804 803 797 792 790 792 793 793 794 796 796 794 796 798 799 797 797 799 800 800 799 799 799 799 801 804 805 802 797 793 793 794 794 793 792 790 786 786 790 793 794 795 798 798 798 798 797 796 797 799 799 798 798 799 800 801 801 803 804 804 804 804 804 803 805 806 806 806 806 806 806 807 807 807
805 803 804 805 805 804 805 806 804 803 803 800 795 791 791 792 791 792 794 794 793 795 798 797 795 796 798 798 798 799 799 799 801 803 803 803 803 804 804 801 797 796 797 798 797 795 793 790 787 787 789 791 793 795 797 798 798 800 801 800 798 798 799 799 799 800 800 800 801 802 803 804 804 804 804 804 803 804 805 806 806 806 806 806 807 807 806
803 801 802 806 807 804 803 805 803 797 793 790 788 786 787 789 790 792 794 793 792 794 797 798 798 799 799 798 799 799 799 799 800 800 800 804 807 805 801 800 801 803 804 803 801 799 795 790 787 790 793 794 795 796 797 797 798 800 801 801 800 800 799 799 800 801 800 801 802 802 802 803 803 803 803 803 803 803 804 804 805 805 805 806 806 806 805
803 801 801 803 804 801 798 798 795 790 786 786 786 787 788 790 791 793 795 795 794 796 798 799 799 800 799 799 799 798 798 801 803 801 799 802 805 802 801 805 808 808 807 808 805 798 792 790 790 791 793 793 795 797 798 798 800 801 801 800 800 800 799 799 801 801 800 800 801 802 801 801 801 801 801 801 802 802 803 803 804 804 804 805 805 805 805
803 802 802 802 801 797 793 789 786 785 785 787 788 789 790 792 793 796 798 797 797 799 800 800 800 800 800 800 802 800 798 801 804 802 798 801 806 807 810 814 812 806 803 802 799 794 791 792 794 795 794 794 796 798 799 800 801 800 799 799 800 800 799 799 801 801 800 799 799 800 800 800 800 801 802 801 800 800 801 801 802 803 803 804 804 804 804
803 803 802 800 796 789 785 785 786 787 788 790 790 791 792 794 795 797 799 799 799 801 801 801 803 804 802 800 802 801 799 801 803 802 800 805 810 812 815 817 815 807 801 797 794 792 792 793 795 797 797 797 798 799 799 799 800 800 800 800 801 800 800 800 800 801 801 799 797 797 798 798 799 800 801 801 801 800 799 799 800 801 802 803 803 803 803
805 804 801 798 794 789 786 786 788 790 792 793 793 792 793 794 796 799 801 800 801 802 802 802 805 806 803 802 804 805 802 800 801 802 805 807 807 808 811 814 811 805 799 795 794 794 795 795 796 797 798 797 798 799 798 797 797 798 798 799 799 799 799 799 799 800 800 799 797 796 796 796 797 797 798 799 801 801 800 799 798 799 800 801 802 802 802
805 803 799 795 792 791 791 791 791 791 792 793 794 795 796 797 798 801 803 802 802 803 804 803 804 806 807 808 810 809 806 802 802 804 805 804 802 803 808 808 803 798 796 795 794 795 797 798 798 798 798 798 797 796 796 796 796 796 796 795 795 795 796 797 797 797 798 798 797 796 795 794 795 795 796 797 799 801 800 798 797 798 799 799 800 801 801
801 799 796 793 791 792 792 793 792 792 792 792 794 797 798 799 799 801 804 804 803 804 803 802 803 806 808 809 808 808 807 806 806 806 805 801 798 799 801 800 796 794 795 794 793 795 798 799 798 797 798 797 797 796 795 795 795 795 794 794 793 794 795 795 795 795 796 795 795 795 795 794 793 793 794 795 797 799 799 797 796 797 797 798 799 799 799